Regional Weather Roundup
Issued by NWS Bismarck, ND

Home | Current Version | Previous Version | Text Only | Print | Product List | Glossary On
Versions: 1 2 3 4 5 6 7 8 9 10 11 12 13 14 15 16 17 18 19 20 21 22 23 24 25 26 27 28 29 30 31 32 33 34 35 36 37 38 39 40 41 42 43 44 45 46 47 48 49 50
000
ASUS43 KBIS 242320
RWRBIS

NWR BROADCAST TEXT
NATIONAL WEATHER SERVICE BISMARCK ND
600 PM CDT THU JUL 24 2014

NOTE: "FAIR" INDICATES FEW OR NO CLOUDS BELOW 12,000 FEET WITH NO
SIGNIFICANT WEATHER AND/OR OBSTRUCTIONS TO VISIBILITY.


CITY           SKY/WX    TMP DP  RH WIND       PRES   REMARKS
WILLISTON      SUNNY     86  65  49 S14G20    29.68F
MINOT          CLOUDY    76  66  71 E9G21     29.69R
MINOT AFB      CLOUDY    76  67  72 E15       29.69S
BISMARCK       CLOUDY    79  65  62 E14       29.79F
DICKINSON      SUNNY     82  67  60 SE16      29.72F
GARRISON         N/A     74  68  81 SE18G28   29.72F
HETTINGER ARPT SUNNY     87  66  49 E9        29.74F
JAMESTOWN      PTSUNNY   75  64  68 S13G24    29.84R
CARRINGTON     LGT RAIN  70  70 100 E15       29.84F
CROSBY         FAIR      77  72  83 SE10G17   29.71F
HARVEY         FAIR      68  68 100 SE13G24   29.71F
HAZEN          FAIR      77  64  65 SE17G24   29.72F
LINTON         FAIR      81  68  65 E17       29.78R
MANDAN         CLOUDY    77  66  69 E12       29.79F
RUGBY          FAIR      72  66  83 E18G29    29.68F
STANLEY        FAIR      75  70  83 S14       29.75S
TIOGA          FAIR      81  68  65 SE14      29.74F
WATFORD CITY   FAIR      82  66  57 S15G21    29.67F
$$

CITY           SKY/WX    TMP DP  RH WIND       PRES   REMARKS
GRAND FORKS    PTSUNNY   76  60  57 S14       29.87F
GRAND FORKS AF PTSUNNY   76  64  65 SE13      29.88S
DEVILS LAKE    CLOUDY    73  63  68 S9        29.87F
FARGO          SUNNY     78  61  55 S16G28    29.86S
CANDO          CLOUDY    72  64  78 SE10      29.86F
CAVALIER       FAIR      75  63  64 S13       29.88S
GRAFTON        FAIR      77  59  53 S13       29.88S
GWINNER        CLOUDY    73  64  73 S14       29.85S
LANGDON        MOCLDY    73  63  68 S12G18    29.89F
ROLLA          CLOUDY    72  64  78 SE15G21   29.84F
WALHALLA         N/A     75  64  69 SE13        N/A
$$

CITY           SKY/WX    TMP DP  RH WIND       PRES   REMARKS
ABERDEEN       SUNNY     78  61  55 S25G36    29.79F
MOBRIDGE       SUNNY     84  69  60 SE22G32   29.67F
BUFFALO          N/A     88  67  49 E12       29.65F HX  91
RAPID CITY     PTSUNNY   90  72  55 CALM      29.74F HX  97
GLASGOW        PTSUNNY   76  58  53 NW44G58   29.68R
SIDNEY         SUNNY    N/A N/A N/A SE13      29.65F
WOLF POINT     SUNNY     93  61  34 S3        29.61F HX  93
GLENDIVE       SUNNY     93  61  33 S8        29.64F HX  93
MILES CITY     MOSUNNY  101  48  16 W13G21    29.63F HX  97
BAKER          SUNNY     92  65  40 E14       29.70F HX  94
$$

CITY           SKY/WX    TMP DP  RH WIND       PRES   REMARKS
BILLINGS       MOSUNNY   93  44  18 NW31G41   29.79R
GREAT FALLS    SUNNY     74  27  17 W22G32    29.94S
REGINA         PTSUNNY   81  66  61 SE14G22   29.66F
ESTEVAN        PTSUNNY   79  68  69 E9        29.71F
$$



USA.gov is the U.S. government's official web portal to all federal, state and local government web resources and services.